{"data":{"norad_id":67822,"intl_designator":"2026-033B","name":"STARLINK-36643","alt_names":[],"object_type":"PAYLOAD","status":"ACTIVE","operator":null,"country":"US","launch_date":"2026-02-16","launch_site_code":"AFETR","launch_vehicle":null,"mission":null,"orbit_class":"UNKNOWN","rcs_meters":null,"size_class":null,"mass_kg":null,"dimensions":null,"purposes":["comms"],"wikipedia_slug":null,"has_3d_model":false,"image_url":null,"decayed_at":null,"tle_current":{"epoch":"2026-09-19T07:35:34.375776Z","epoch_age_seconds":168765,"freshness":"FRESH","line1":"1 67822U 26033B   26262.31637009  .00007385  00000+0  27761-3 0  9994","line2":"2 67822  43.0016 253.8305 0001934 284.5089  75.5548 15.27581840 34282","mean_motion":15.2758184,"eccentricity":0.0001934,"inclination_deg":43.0016,"raan_deg":253.8305,"arg_perigee_deg":284.5089,"mean_anomaly_deg":75.5548,"bstar":0.00027761,"rev_number":3428,"period_min":94.266635167645,"perigee_km":481.71663409783,"apogee_km":484.37053874866,"semimajor_km":6861.1805864232,"source":"CELESTRAK","updated_at":"2026-09-20T09:00:43.667102Z"}}}